Location: Huppendorf
(49.9333°N, 11.1500°E)
Time: 07:17:58
(UTC+00:00)

STARLINK-63 - Pass Details

Date: 27 February 2020
Orbit: 528 x 531 km, 53.0° (Epoch: 31 March)

Event Time Altitude Azimuth Distance (km) Brightness Sun altitude
Rises 19:29:00 0° 289° (WNW) 2,670 8.5 -25.5°
Reaches altitude 10° 19:31:14 10° 291° (WNW) 1,779 7.2 -25.9°
Enters shadow 19:34:11 46° 306° (NW) 717 4.5 -26.3°
